Regional Weather Roundup
Issued by NWS

Home | Current Version | Previous Version | Text Only | Print | Product List | Glossary Off
Versions: 1 2 3 4 5 6 7 8 9 10 11 12 13 14 15 16 17 18 19 20 21 22 23 24 25 26 27 28 29 30 31 32 33 34 35 36 37 38 39 40 41 42 43 44 45 46 47 48

000
ASUS45 KSLC 242010
RWRUT

UTAH REGIONAL WEATHER ROUNDUP
NATIONAL WEATHER SERVICE SALT LAKE CITY UT
100 PM MST SAT JAN 24 2015

UTZ001>011-023>025-242100-

NORTHERN UTAH

CITY           SKY/WX    TMP DP  RH WIND       PRES   REMARKS
BRIGHAM CITY   CLOUDY    32  26  77 N3        30.50F
HILL AFB       CLOUDY    35  17  48 S6        30.46F WCI  30
LOGAN          CLOUDY    29  22  75 CALM      30.49S
OGDEN          CLOUDY    36  21  54 S5        30.46F WCI  32
PROVO AIRPORT  MOSUNNY   32  21  64 VRB5      30.49F WCI  27
SALT LAKE CITY PTSUNNY   39  22  50 N3        30.48F
VERNAL         CLOUDY    33  15  47 CALM      30.34F
WENDOVER       SUNNY     36  25  64 CALM      30.47F
HEBER CITY     MOSUNNY   30  18  59 CALM      30.43F
WEST JORDAN    PTSUNNY   39  21  48 CALM      30.47F

$$

UTZ012>022-026-027-242100-

SOUTHERN/CENTRAL UTAH

CITY           SKY/WX    TMP DP  RH WIND       PRES   REMARKS
BLANDING       MOSUNNY   43  14  31 SW3       30.39F
BRYCE CANYON   SUNNY     42  20  41 NE9       30.38F
CEDAR CITY     SUNNY     42  20  41 VRB5      30.41F
DELTA          SUNNY     39  21  49 SW3       30.46F
MILFORD        SUNNY     42  22  44 N13       30.43F
MOAB/CYNLANDS  SUNNY     41  15  35 S6        30.35F
PRICE          PTSUNNY   37  16  42 E5        30.34F WCI  33
ST GEORGE      PTCLDY    52  21  30 CALM      30.37F
KANAB          SUNNY     52  19  28 E10       30.36F

$$

REGIONAL REPORTS     COLORADO/ARIZONA

CITY           SKY/WX    TMP DP  RH WIND       PRES   REMARKS
CRAIG, CO      CLOUDY    23  13  65 S6        30.33F WCI  16
GRAND JUNCTION CLOUDY    38  11  32 VRB5      30.35F WCI  34
RIFLE          CLOUDY    31  11  43 E3        30.35F
MONTROSE       CLOUDY    38  10  31 NE3       30.34F
CORTEZ         SUNNY     42  13  30 W12       30.31F
PAGE, AZ       NOT AVBL
GRAND CANYON   SUNNY     45  11  25 E14       30.33F
KINGMAN        SUNNY     59  15  18 N18       30.25F
FLAGSTAFF      SUNNY     44  10  25 E20       30.32F

$$

REGIONAL REPORTS    NEVADA/IDAHO/WYOMING

CITY           SKY/WX    TMP DP  RH WIND       PRES   REMARKS
LAS VEGAS, NV  SUNNY     63  22  20 NE8       30.28F
ELY            SUNNY     45  20  36 N5        30.44F
ELKO           SUNNY     45  30  55 SW10      30.47F
POCATELLO, ID  CLOUDY    29  28  96 CALM      30.46F
BURLEY         CLOUDY    38  30  73 NE6       30.43F WCI  33
EVANSTON, WY   PTSUNNY   35  22  58 SW23      30.35F WCI  23
ROCK SPRINGS   CLOUDY    36  19  50 W37G45    30.25F WCI  22
KEMMERER       CLOUDY    30  23  74 W7        30.36  WCI  23

$$


USA.gov is the U.S. government's official web portal to all federal, state and local government web resources and services.